Simultaneous Nadir Overpasses (SNOs) Predictions

Prediction of SNOs between METOP-B and NOAA-19 Satellite Orbit:

Table of predicted SNOs for the next 14.0 days since TLE Epoch: 6/18/2016
Index Date (METOP-B) Time (METOP-B) Lat,Lon (METOP-B) SZA (METOP-B ) Date (NOAA-19) Time (NOAA-19) Lat,Lon (NOAA-19) SZA (NOAA-19 ) Distance(km) Time Diff (sec)
1 06/26/2016 02:27:57 76.11, 143.72 52.69 06/26/2016 02:26:54 76.14, 143.68 52.72 3.03 63
2 06/26/2016 03:18:38 -76.13, -48.90 127.30 06/26/2016 03:17:49 -76.12, -48.98 127.31 2.23 49
3 06/26/2016 04:09:19 76.09, 118.32 52.68 06/26/2016 04:08:55 76.09, 118.34 52.67 0.72 24
4 06/26/2016 05:00:00 -76.11, -74.30 127.31 06/26/2016 04:59:50 -76.07, -74.32 127.35 4.02 10
5 06/26/2016 05:50:41 76.07, 92.91 52.66 06/26/2016 05:50:57 76.09, 92.84 52.67 2.47 16
6
